Regional Weather Roundup
Issued by NWS

Home | Current Version | Previous Version | Text Only | Print | Product List | Glossary On
Versions: 1 2 3 4 5 6 7 8 9 10 11 12 13 14 15 16 17 18 19 20 21 22 23 24 25 26 27 28 29 30 31 32 33 34 35 36 37 38 39 40 41 42 43 44 45 46 47 48 49 50
000
ASUS43 KDTX 242010
RWRMI
MICHIGAN HOURLY REGIONAL WEATHER ROUNDUP
NATIONAL WEATHER SERVICE DETROIT/PONTIAC MI
400 PM EDT WED AUG 24 2016

NOTE: "FAIR" INDICATES FEW OR NO CLOUDS BELOW 12,000 FEET WITH NO
SIGNIFICANT WEATHER AND/OR OBSTRUCTION TO VISIBILITY.

MIZ047>049-052>055-059>063-066>070-074>076-081>083-242100-
SOUTHEAST LOWER MICHIGAN

CITY           SKY/WX    TMP DP  RH WIND       PRES   REMARKS
ADRIAN         CLOUDY    81  74  79 S14       29.99F
ALMA           CLOUDY    81  74  80 SW8G17    29.96S
ANN ARBOR      CLOUDY    82  72  71 S13       29.98F
BAD AXE        PTSUNNY   79  69  69 S15G21    29.98F
CARO           PTSUNNY   79  72  77 S7        29.96F
DETROIT CITY   CLOUDY    81  70  69 S18G24    30.00F
DETROIT        CLOUDY    83  71  67 S17       30.00F
FLINT          MOSUNNY   84  71  65 S10       29.98F
GROSSE ILE     MOSUNNY   81  73  76 S13       30.00F
HILLSDALE      CLOUDY    79  71  75 S13G20    30.00S
HOWELL         CLOUDY    80  72  78 S9        29.99F

CITY           SKY/WX    TMP DP  RH WIND       PRES   REMARKS
JACKSON        CLOUDY    82  72  71 SW14G23   29.99S
LAMBERTVILLE   PTSUNNY   83  71  66 S9G16     30.02F
LANSING        CLOUDY    79  69  71 S12       29.98F
LAPEER         PTSUNNY   81  70  69 S10G21    29.99F
MASON          CLOUDY    81  71  71 SW3       29.98S
MONROE         PTSUNNY   84  73  70 S16G23    30.00F HX  90
MT. CLEMENS    CLOUDY    81  71  69 S18       29.98F
PONTIAC        CLOUDY    81  70  69 S10       29.99F
PORT HURON     CLOUDY    79  68  69 S16G22    30.01F
TRI CITIES     PTSUNNY   78  72  81 S8        29.95F
MIDLAND        CLOUDY    76  71  83 SW6       29.95S
TROY           CLOUDY    83  67  57 S12G18    30.01F
SAGINAW HB     CLOUDY    79  70  73 S13       29.95F
$$
MIZ043>046-050>051-056>058-064>065-071>073-077>080-242100-
SOUTHWEST LOWER MICHIGAN

CITY           SKY/WX    TMP DP  RH WIND       PRES   REMARKS
BATTLE CREEK   CLOUDY    77  72  84 SW12      29.98S
BENTON HARBOR  CLOUDY    81  71  71 SW12G22   29.94R
BIG RAPIDS     CLOUDY    81  69  68 SW12G21   29.94S
COLDWATER      PTSUNNY   79  71  75 S12G17    29.98S
FREMONT        CLOUDY    77  70  78 SW12      29.94S
HOLLAND        CLOUDY    77  71  82 SW13      29.96S
GRAND RAPIDS   CLOUDY    79  70  74 SW14      29.96S
IONIA          CLOUDY    78  69  72 SW7       29.95S
KALAMAZOO      PTSUNNY   80  71  74 S16       29.96S
LUDINGTON      CLOUDY    76  72  85 SW20G26   29.91S
MARSHALL       CLOUDY    82  70  65 SW15G23   29.98R
MOUNT PLEASANT CLOUDY    79  71  77 SW9       29.94F
MUSKEGON       CLOUDY    77  72  84 S16       29.95S
SOUTH HAVEN    CLOUDY    81  73  76 SW6       29.95R
$$
MIZ016>042-242100-
NORTHERN LOWER MICHIGAN

CITY           SKY/WX    TMP DP  RH WIND       PRES   REMARKS
ALPENA         CLOUDY    77  68  73 SW13      29.90F
BEAVER ISLAND  LGT RAIN  70  69  96 SW13G21   29.85S
BELLAIRE       CLOUDY    77  69  78 S6        29.87F
CADILLAC       CLOUDY    81  67  62 SW18      29.92F
CHARLEVOIX     CLOUDY    75  70  83 SW8       29.89F
FRANKFORT      CLOUDY    75  69  80 S16G28    29.89S
GAYLORD        CLOUDY    77  66  68 SW13      29.90F
GRAYLING       CLOUDY    80  69  69 SW12      29.91F
HARBOR SPRINGS RAIN      72  70  93 SW7       29.87F
HOUGHTON LAKE  CLOUDY    78  68  71 S9        29.93F
MANISTEE       PTSUNNY   78  69  73 SW16G28   29.89F
OSCODA         CLOUDY    78  69  72 SW18G30   29.93S
PELLSTON       LGT RAIN  72  68  87 SW8G17    29.87F FOG
ROGERS CITY    CLOUDY    75  69  80 SW10      29.88F
TRAVERSE CITY  PTSUNNY   80  68  66 SW9G24    29.86F
$$
MIZ007>008-015-242100-
EASTERN UPPER MICHIGAN

CITY           SKY/WX    TMP DP  RH WIND       PRES   REMARKS
KINROSS        CLOUDY    68  67  96 VRB5      29.84F
MACKINAC ISLAN LGT RAIN  70  70 100 SW10G20   29.85F
NEWBERRY       CLOUDY    71  70  97 SW13      29.82S
S. S. MARIE    CLOUDY    68  67  96 SE6       29.83S
$$
MIZ004>006-011>014-085-242100-
CENTRAL UPPER MICHIGAN

CITY           SKY/WX    TMP DP  RH WIND       PRES   REMARKS
MANISTIQUE     CLOUDY    67  65  92 SW10      29.82S FOG
ESCANABA       PTSUNNY   77  69  76 SW13G23   29.81S
MENOMINEE      LGT RAIN N/A N/A N/A VRB3      29.86S
SAWYER-GWINN   LGT RAIN  70  68  94 SW9       29.82S
$$
MIZ001>003-009>011-084-242100-
WESTERN UPPER MICHIGAN

CITY           SKY/WX    TMP DP  RH WIND       PRES   REMARKS
IRON MOUNTAIN  PTSUNNY   77  66  68 SW9       29.82S
HOUGHTON       PTSUNNY   75  63  66 W13       29.80R
COPPER HARBOR    N/A     70  65  84 N7        29.77F
IRONWOOD       CLOUDY    75  66  73 W13       29.84R
$$

ABBREVIATIONS USED IN REMARKS
   TC - TEMPERATURE IN CELSIUS
  WCI - WIND CHILL INDEX
   HX - HEAT INDEX
  VSB - VISIBILITY




USA.gov is the U.S. government's official web portal to all federal, state and local government web resources and services.